RH
12 20 14 10 10 6 3 3 3 3 4 4 4 4 3 4 5 6 6 6 6 6 5 5 5 5 5 6 7 8 8 9 10 11 12 12 12 12 12 12 11 10 10
23 21 21 17 14 11 9 7 5 4 3 3 4 4 4 4 5 6 6 6 6 6 6 6 5 5 5 6 8 8 10 11 12 12 12 12 13 14 13 12 13 13 13
26 21 21 20 20 18 14 12 10 8 6 4 4 4 4 4 4 4 5 7 7 7 7 6 6 6 6 7 8 10 11 12 13 13 13 13 12 11 11 11 13 15 17
21 20 18 16 15 15 15 16 15 14 12 9 6 4 4 4 5 6 6 6 6 6 7 7 7 7 8 9 10 11 11 11 12 11 10 9 11 19 23 23 25 26 27
15 14 14 13 11 11 11 12 13 13 14 15 16 13 9 6 6 5 5 6 6 6 6 7 8 9 10 11 13 13 12 11 11 12 16 21 22 23 27 28 26 24 24
10 9 8 8 8 8 10 9 9 10 10 11 12 13 16 16 15 14 8 6 6 6 6 7 8 9 11 12 14 15 16 18 20 20 19 21 24 29 29 31 30 23 18
9 9 9 9 9 10 9 9 9 10 10 10 9 10 10 11 13 16 16 14 10 8 7 7 8 10 13 15 15 16 16 18 18 19 23 29 31 32 33 34 34 31 24
10 10 10 11 12 12 11 11 10 12 12 12 13 13 13 13 13 13 14 15 14 12 11 11 15 16 22 24 24 25 26 26 28 30 31 34 35 35 36 37 38 37 34
11 9 10 12 12 12 15 15 13 12 14 14 15 14 14 14 15 17 17 16 15 16 16 15 18 22 26 30 32 32 33 35 34 35 37 38 38 39 39 40 42 42 40
8 8 9 10 11 15 14 14 16 16 15 16 16 15 15 15 16 17 19 20 19 19 19 19 20 22 28 29 33 36 35 36 36 38 41 42 43 44 43 45 47 49 46
8 9 10 11 12 12 13 16 18 20 19 20 18 18 18 19 18 17 17 19 22 24 25 26 24 24 25 26 26 31 34 37 37 38 40 44 46 48 48 46 44 46 51
7 7 8 8 11 11 13 19 20 18 20 21 21 21 21 21 20 19 19 19 20 21 22 29 29 30 30 30 30 30 29 31 37 42 44 42 42 43 44 46 49 53 53
12 14 11 9 10 12 14 17 19 19 20 21 22 24 24 24 25 24 23 22 23 22 22 24 28 29 32 32 32 32 32 32 31 30 31 33 35 35 34 35 37 40 45
9 12 16 11 11 10 11 13 16 18 18 21 22 22 25 24 24 26 28 28 25 23 25 26 26 32 44 54 46 31 28 29 30 30 30 30 29 29 32 38 44 48 47
8 11 10 11 15 10 12 12 13 14 14 14 12 15 16 17 18 21 26 28 29 27 30 31 33 35 40 33 30 31 32 30 30 29 29 28 28 29 37 40 48 64 68
7 8 12 12 11 10 11 11 11 11 12 12 11 11 12 11 16 25 24 25 26 31 35 37 38 36 36 34 37 39 36 33 30 28 28 30 31 31 37 42 44 64 72
8 8 9 14 16 11 18 12 11 11 10 10 16 12 8 8 13 15 16 18 27 36 43 45 43 41 45 43 44 43 43 43 44 44 44 40 32 28 31 40 42 57 74
10 10 8 11 21 21 18 12 12 13 13 10 12 17 23 15 10 10 12 12 19 35 47 51 47 48 45 45 47 48 47 46 45 49 48 46 45 40 29 34 39 45 64
9 9 9 8 10 16 14 12 16 31 40 48 36 24 25 30 18 19 19 15 25 35 40 46 49 51 49 48 49 48 42 40 40 40 41 48 46 43 35 29 30 37 45
8 8 9 8 8 8 8 9 14 24 28 33 44 44 40 33 27 22 32 39 42 37 39 43 48 48 38 39 29 22 24 25 28 37 42 50 49 43 42 42 40 41 40
7 7 9 9 10 9 8 9 9 11 21 29 39 54 64 51 44 46 47 68 42 51 38 35 38 36 30 23 20 22 24 22 27 32 43 52 55 51 43 38 36 37 38
8 7 8 9 9 8 8 9 9 10 10 17 28 42 60 79 74 77 64 61 50 51 54 43 57 46 38 28 23 25 21 18 31 32 34 46 51 53 51 49 47 46 45
9 8 8 8 9 8 8 8 8 10 10 11 12 23 40 68 76 70 71 72 71 64 68 71 76 67 54 39 34 30 25 20 23 37 31 24 27 34 37 40 47 47 45
9 8 9 9 10 12 12 10 10 11 12 13 16 17 15 22 44 51 68 82 94 92 95 95 97 94 90 72 54 45 40 35 29 34 35 33 30 30 36 41 44 48 47
9 9 8 8 9 11 12 12 12 11 12 14 15 18 32 32 32 65 77 89 95 91 86 78 86 86 94 98 92 77 60 45 37 35 39 40 37 32 38 44 44 46 46
9 9 10 11 10 11 12 13 12 11 10 11 14 17 18 30 32 34 42 51 55 60 57 68 73 70 72 86 95 92 87 66 57 43 45 46 41 39 42 49 50 48 48
Wind_Speed
15 14 14 15 14 14 16 16 17 17 19 19 18 17 16 16 16 15 15 14 15 15 16 17 17 16 15 15 15 15 15 16 17 17 17 17 18 18 18 19 19 17 17
16 14 15 16 16 17 15 13 13 14 16 17 17 17 17 18 19 19 17 17 17 17 16 18 19 19 18 17 17 16 15 16 17 17 18 18 18 18 18 18 18 19 19
18 16 15 16 17 17 17 17 16 16 17 18 17 18 18 18 18 20 21 21 21 20 19 19 21 21 21 20 19 18 18 18 18 19 19 18 18 18 18 18 18 19 20
18 17 16 17 17 16 16 18 18 18 18 18 18 18 19 19 19 20 19 20 22 22 20 20 21 21 21 21 21 20 20 20 20 20 19 17 16 17 19 20 20 21 23
19 18 18 17 17 15 16 16 16 16 17 18 18 18 19 18 18 19 19 20 21 21 21 20 20 20 21 22 22 21 21 21 19 19 18 19 20 18 17 19 21 24 25
22 22 21 20 20 18 17 16 16 17 17 18 18 17 17 18 18 19 19 19 20 21 22 21 21 21 20 22 23 23 23 23 23 23 21 20 19 18 18 20 21 22 24
27 26 25 24 22 21 20 20 19 18 18 18 18 18 18 18 18 19 19 20 20 20 21 22 21 21 20 21 22 23 24 24 24 23 22 20 20 21 21 22 22 22 23
30 29 28 26 24 24 23 22 20 19 19 19 18 17 17 16 16 17 18 18 19 19 19 20 19 19 18 19 20 21 22 22 22 22 22 22 23 24 24 26 25 25 24
31 31 30 28 28 26 25 23 22 21 21 19 18 19 18 16 16 16 16 17 17 18 17 19 20 19 19 19 19 20 21 22 23 24 24 26 26 27 27 27 28 26 27
31 31 30 30 30 27 27 26 24 23 21 20 19 19 18 17 16 17 17 16 17 16 17 17 18 20 20 21 22 22 22 24 25 26 28 29 29 31 31 30 31 30 29
28 30 31 31 31 30 29 28 27 25 23 22 22 21 20 19 18 17 18 18 19 20 20 19 19 18 19 20 22 23 25 25 27 29 32 33 34 35 36 36 35 34 32
29 31 31 31 31 31 31 29 29 27 27 25 24 23 22 22 22 22 21 21 20 20 21 22 22 23 23 22 22 23 24 26 29 31 34 35 37 37 39 38 37 36 35
31 29 28 30 31 30 30 30 29 29 29 28 27 27 26 26 25 25 25 25 24 22 22 23 24 24 24 24 24 25 26 27 28 29 30 32 34 34 35 36 36 37 37
31 31 29 28 27 27 28 29 30 30 30 30 29 28 28 29 29 28 28 28 29 27 26 24 25 25 25 26 28 28 28 28 29 29 30 31 31 33 34 34 34 33 33
30 31 31 30 28 27 28 28 29 30 31 32 31 30 29 30 30 30 30 31 31 29 28 26 25 24 28 28 28 26 26 27 29 29 31 31 32 32 32 32 32 31 29
28 28 32 34 34 33 30 30 31 32 33 33 31 29 28 29 29 28 30 32 31 29 28 28 27 26 24 24 25 25 26 27 28 30 31 32 32 32 31 30 31 31 29
27 29 32 35 39 37 34 33 33 34 35 34 32 29 27 28 28 28 29 30 30 29 28 27 29 28 26 26 27 28 27 28 29 30 30 31 31 32 32 31 30 30 30
31 31 34 37 40 41 40 37 36 36 37 35 33 30 28 28 28 28 28 28 29 29 29 29 29 29 30 29 30 31 33 34 36 35 35 35 34 32 31 31 30 30 32
35 34 36 39 41 43 43 40 40 39 38 36 35 32 29 29 30 29 29 29 29 29 29 30 30 31 33 33 33 35 38 39 38 39 37 35 35 33 32 31 31 31 31
39 39 39 40 41 42 43 42 41 42 40 37 37 36 35 32 32 33 33 31 31 30 30 31 32 34 36 36 34 34 34 34 32 32 32 33 34 33 33 33 32 33 34
44 42 40 43 42 43 43 42 42 43 42 42 40 41 39 35 35 36 36 34 34 33 32 33 33 34 34 34 33 33 32 32 31 31 31 32 34 34 33 33 34 35 36
45 46 44 43 46 47 46 44 43 45 46 45 45 44 43 38 38 39 39 39 39 38 36 36 35 35 36 35 36 35 34 33 32 32 32 33 35 36 36 36 36 36 37
47 46 47 48 48 49 50 48 47 45 45 46 46 46 45 44 42 42 42 45 42 41 40 38 38 37 36 38 38 37 37 36 36 35 35 35 37 38 38 38 38 38 38
49 49 47 49 49 48 50 50 50 48 47 47 47 48 49 49 47 47 46 47 44 43 42 41 42 42 37 39 39 40 39 39 39 39 39 39 38 38 38 39 40 40 41
47 49 51 51 52 53 54 54 54 55 53 49 49 49 51 50 48 48 48 49 46 45 46 47 46 46 44 44 42 41 42 43 42 41 41 42 41 40 41 41 43 44 44
46 47 48 49 53 55 56 57 58 60 60 60 56 52 50 49 50 49 49 48 47 46 47 48 48 48 46 46 47 47 45 45 45 45 45 45 43 42 44 44 46 47 48
Wind_Direction
257 259 252 257 262 260 261 264 266 267 269 272 274 275 271 265 265 269 274 279 283 289 296 300 298 294 289 284 278 279 285 289 288 288 289 290 289 290 290 291 292 291 288
261 260 263 264 269 270 272 277 282 282 280 278 280 281 280 276 272 271 271 270 273 279 284 286 287 286 284 277 275 273 274 273 275 277 278 280 283 284 284 284 286 288 289
258 261 255 263 269 273 274 278 278 281 285 283 281 281 282 281 280 274 273 273 275 279 282 284 285 282 279 275 271 269 271 272 274 275 277 279 281 282 283 287 290 291 292
257 259 260 261 262 271 273 271 273 277 278 279 283 285 286 285 285 283 283 280 279 279 278 280 281 279 276 274 272 271 271 272 275 276 277 280 280 283 287 291 295 298 299
257 255 256 256 259 263 268 276 283 284 283 282 280 281 283 285 286 285 285 284 283 282 279 280 281 281 278 275 272 273 275 274 274 274 276 279 282 285 295 302 304 300 295
258 259 259 261 263 264 269 272 276 280 283 287 290 288 284 286 288 292 291 289 285 285 284 280 279 278 274 275 274 273 272 273 273 276 278 278 278 283 295 301 308 308 305
260 261 262 264 264 268 270 273 277 282 286 285 284 287 289 289 287 287 289 290 290 288 288 286 282 281 279 278 278 276 273 273 274 275 274 271 274 284 294 300 308 312 309
263 263 265 267 267 266 267 268 268 273 276 279 280 282 285 290 292 290 286 286 288 287 287 284 281 278 276 274 273 273 274 275 274 272 271 272 277 284 292 299 304 308 310
259 263 264 266 268 269 269 269 270 266 270 276 279 282 285 287 288 288 291 291 287 286 285 285 282 275 274 271 271 271 272 271 269 268 268 271 276 282 287 293 298 299 302
258 261 263 265 266 268 268 268 268 268 266 269 275 279 282 285 288 289 289 289 288 285 283 279 279 279 277 275 274 272 271 270 266 265 266 270 275 280 285 290 292 292 294
254 255 257 258 262 264 267 268 267 269 270 269 270 273 277 281 284 286 287 288 283 285 286 285 284 284 284 284 283 280 276 274 272 270 269 271 276 280 284 286 287 288 288
249 251 254 258 259 261 264 266 270 272 272 272 274 275 274 275 278 279 279 279 281 284 286 282 282 283 283 283 284 285 284 282 279 277 275 276 277 279 281 284 285 285 285
251 255 254 256 259 263 264 265 268 270 272 273 274 276 277 278 277 277 278 279 280 282 283 283 281 282 282 285 287 286 287 285 284 284 284 283 284 285 286 287 287 285 283
247 252 257 258 261 264 265 264 263 266 269 271 271 273 274 276 276 277 277 279 280 281 283 284 282 281 279 283 286 287 287 285 283 283 284 285 287 288 289 288 288 288 286
253 252 252 254 255 254 257 260 262 263 265 267 269 270 272 273 274 275 275 275 276 277 279 283 285 282 282 284 286 288 288 286 287 287 286 288 289 291 291 291 291 289 287
253 254 254 253 251 252 252 254 256 258 261 263 267 268 268 270 271 270 270 271 273 276 277 280 281 282 283 284 285 287 288 288 289 290 290 290 291 291 289 292 292 288 285
253 253 254 255 255 255 252 253 257 259 262 265 266 267 267 268 269 270 270 270 271 273 276 278 279 282 284 285 284 286 286 289 289 289 292 295 294 294 292 291 293 288 281
244 245 249 252 253 255 254 254 254 257 261 264 266 266 266 268 268 267 270 271 273 273 274 276 278 281 283 283 284 285 288 291 290 289 290 293 295 295 290 289 291 292 283
250 246 246 250 252 254 255 256 256 256 258 261 265 266 265 266 266 266 268 269 268 269 272 275 278 280 281 282 284 286 290 291 290 290 291 291 290 291 290 287 285 286 286
252 252 247 247 249 253 255 256 257 258 259 261 261 263 260 259 261 263 266 269 271 268 270 273 276 278 280 281 284 289 292 292 292 292 293 293 293 290 289 288 287 286 285
255 253 254 254 253 252 254 255 256 258 257 258 259 259 258 258 260 261 265 265 269 269 271 274 274 277 280 283 285 286 290 293 295 294 293 293 294 294 294 293 292 291 291
256 255 255 257 256 255 252 253 252 253 255 254 255 257 260 258 258 258 261 264 265 269 269 272 271 274 276 279 282 284 287 291 294 294 292 291 291 293 294 294 294 294 293
261 261 259 258 258 258 259 257 256 254 252 255 256 257 258 257 255 256 257 263 265 269 271 271 270 271 275 279 280 283 285 288 291 293 293 292 292 292 293 294 294 294 294
262 261 261 260 259 260 260 259 259 256 253 252 254 254 254 255 255 256 257 259 262 265 268 271 273 269 267 275 282 283 285 285 288 289 290 292 292 294 294 294 293 293 291
263 264 264 262 262 260 258 257 258 257 257 254 252 253 255 256 255 255 256 259 261 264 267 269 270 272 275 276 274 278 285 285 286 286 288 289 290 292 290 291 291 289 289
267 268 267 268 267 264 264 264 263 262 260 259 257 255 252 253 254 254 255 258 262 265 269 271 273 274 275 276 278 280 279 282 285 287 287 287 287 287 288 288 289 289 289